#timestamp,LO_Frequency,Hit,StdDev 
1456891215.1,286046998.7,N
1456891235.9,286046998.2,N
1456891255.7,286046998.6,N
1456891275.5,286046997.4,N
1456891295.4,286046998.2,N
1456891315.2,286046995.4,N
1456891335.0,286046995.3,N
1456891335.9,286046995.3,N
1456891355.8,286046997.2,N
1456891375.6,286046996.9,N
1456891395.4,286046996.9,N
1456891415.3,286046995.4,N
1456891435.1,286046995.4,N
1456891436.0,286046995.4,N
1456891455.8,286046996.3,N
1456891475.7,286046993.5,N
1456891495.5,286046992.0,N
1456891515.3,286046992.7,N
1456891535.1,286046992.4,N
1456891555.9,286046992.2,N
1456891575.7,286046994.4,N
1456891595.5,286046994.3,N
1456891615.4,286046994.5,N
1456891635.2,286046995.7,N
1456891655.0,286046992.1,Y
1456891655.9,286046992.1,P
1456891675.8,286046999.6,N
1456891695.6,286046999.2,N
1456891715.4,286046998.5,N
1456891735.3,286046997.3,N
1456891755.1,286046996.7,N
1456891756.0,286046996.7,N
1456891775.8,286046997.6,N
1456891795.7,286046996.1,N
1456891815.5,286046995.0,N
1456891835.3,286046998.0,N
1456891855.2,286046997.6,N
1456891875.9,286046998.6,N
1456891895.7,286047002.7,N
1456891915.5,286047003.8,N
1456891935.4,286047004.3,N
1456891955.2,286047005.9,N
1456891975.0,286047005.1,N
1456891975.9,286047005.1,N
1456891995.8,286047004.5,N
1456892015.6,286047006.9,N
1456892035.4,286047010.2,N
1456892055.3,286047010.5,N
1456892075.1,286047009.4,N
1456892076.0,286047009.4,N
1456892095.8,286047009.8,N
1456892115.7,286047009.9,N
1456892135.5,286047012.2,N
1456892155.3,286047013.9,N
1456892175.2,286047011.4,N
1456892195.9,286047012.3,N
1456892215.7,286047013.5,N
1456892235.6,286047011.4,N
1456892255.4,286047009.5,N
1456892275.2,286047009.4,N
1456892295.0,286047009.5,N
1456892296.0,286047009.5,N
1456892315.8,286047008.1,N
1456892335.6,286047008.5,N
1456892355.4,286047012.4,N
1456892375.3,286047012.1,N
1456892395.1,286047014.0,Y
1456892415.8,286047007.4,P
1456892435.7,286047008.1,P
1456892455.5,286047007.9,P
1456892475.3,286047008.4,Y
1456892495.2,286047002.5,P
1456892515.0,286046998.3,N
1456892515.9,286046998.3,N
1456892535.7,286046999.2,N
1456892555.6,286046999.2,N
1456892575.4,286046997.1,N
1456892595.2,286046997.4,N
1456892615.1,286046996.1,N
1456892616.0,286046996.1,N
1456892635.8,286046995.9,N
1456892655.6,286046993.9,N
1456892675.5,286046992.5,N
1456892695.3,286046991.2,N
1456892715.1,286046985.4,Y
1456892735.9,286046989.8,P
1456892755.7,286046989.4,N
1456892775.5,286046989.2,N
1456892795.4,286046988.6,Y
1456892815.2,286046997.4,P
1456892835.0,286046995.2,N
1456892835.9,286046995.2,N
1456892855.8,286046995.6,N
1456892875.6,286046996.4,N
1456892895.4,286046995.9,N
1456892915.3,286046993.3,Y
1456892935.1,286046997.1,P
1456892955.8,286046999.5,N
1456892975.7,286046999.5,N
1456892995.5,286046998.7,N
1456893015.3,286046995.5,N
1456893035.2,286046996.0,N
1456893055.9,286046997.9,N
1456893075.7,286047000.6,N
1456893095.6,286046998.8,N
1456893115.4,286047000.0,N
1456893135.2,286047002.6,N
1456893155.0,286047004.2,N
1456893155.9,286047004.2,N
1456893175.8,286047000.5,N
1456893195.6,286047001.0,N
1456893215.4,286047002.6,N
1456893235.3,286047001.7,N
1456893255.1,286046999.9,N
1456893275.8,286047000.1,N
1456893295.7,286047000.3,N
1456893315.5,286047000.7,N
1456893335.3,286047000.2,N
1456893355.2,286047003.7,N
1456893375.9,286047000.5,N
1456893395.7,286046998.9,N
1456893415.6,286046999.2,N
1456893435.4,286046997.9,N
1456893455.2,286046997.8,N
1456893475.0,286046996.1,N
1456893476.0,286046996.1,N
1456893495.8,286046994.3,N
1456893515.6,286046988.6,Y
1456893535.5,286046990.4,P
1456893555.3,286046996.0,N
1456893575.1,286046993.8,N
1456893595.8,286046996.4,N
1456893615.7,286046997.6,N
1456893635.5,286046999.2,N
1456893655.3,286046998.9,N
1456893675.2,286046999.8,N
1456893695.9,286047001.0,N
1456893715.7,286046997.2,N
1456893735.6,286046998.9,N
1456893755.4,286046998.3,N
1456893775.2,286046998.1,N
1456893795.1,286046998.1,N
1456893796.0,286046998.1,N
1456893815.8,286046997.1,N
1456893835.6,286046996.3,N
1456893855.4,286046993.9,N
1456893875.3,286046994.6,N
1456893895.1,286046991.7,Y
1456893915.9,286046995.3,P
1456893935.7,286046996.2,P
1456893955.5,286046994.1,P
1456893975.4,286046990.4,Y
1456893995.2,286046995.1,P
1456894015.0,286046995.2,P
1456894015.9,286046995.2,P
1456894035.8,286046997.4,Y
1456894055.6,286047000.4,P
1456894075.4,286046998.2,N
1456894095.2,286047001.9,N
1456894115.1,286047002.9,N
1456894116.0,286047002.9,N
1456894135.8,286047008.3,Y
1456894155.7,286047008.3,P
1456894175.5,286047008.2,N
1456894195.3,286047007.8,N
1456894215.2,286047012.1,Y
1456894235.9,286047005.5,P
1456894255.7,286047003.8,P
1456894275.5,286047003.3,P
1456894295.4,286047009.2,Y
1456894315.2,286047001.8,P
1456894335.0,286047003.5,N
1456894336.0,286047003.5,N
1456894355.8,286047003.1,N
1456894375.6,286047001.5,N
1456894395.5,286047003.5,Y
1456894415.3,286047000.6,P
1456894435.1,286046998.6,N
1456894455.8,286046996.8,N
1456894475.7,286046999.0,N
1456894495.5,286047000.8,N
1456894515.3,286047000.0,N
1456894535.2,286046999.3,N
1456894555.9,286047002.8,N
1456894575.7,286047002.5,N
1456894595.6,286046998.4,N
1456894615.4,286047000.6,N
1456894635.2,286046998.5,N
1456894655.1,286046998.3,N
1456894656.0,286046998.3,N
1456894675.8,286046998.4,N
1456894695.6,286047000.0,N
1456894715.5,286047005.3,Y
1456894735.3,286047005.6,P
1456894755.1,286046999.7,N
1456894775.9,286047001.1,N
1456894795.7,286047001.9,N
